Cloud_Cover
19 100 85 100 100 100 100 100 100 100 100 100 100 100 100 100 100 100 81 38 59 5 61 19 5 5 4 5 58 70 100 74 4 3 0 0 0 0 0 0 0 0 0 0 0
41 58 79 40 49 100 99 100 100 100 100 100 100 100 100 100 100 100 100 100 99 25 25 58 5 5 2 4 77 96 100 86 23 5 0 0 0 0 0 0 0 0 0 0 0
70 45 98 92 37 91 100 100 100 100 100 100 100 100 98 100 100 83 99 97 47 23 10 5 5 16 5 5 5 92 99 100 96 5 5 1 0 0 0 0 0 0 0 0 0
100 100 98 96 98 96 100 100 100 100 100 100 100 100 97 5 73 14 100 12 96 5 5 5 5 32 7 5 5 40 89 100 100 45 5 5 2 0 0 0 0 0 0 0 0
100 99 90 97 98 90 97 88 100 100 100 100 100 33 12 21 22 5 93 35 99 12 62 27 52 77 100 18 5 33 94 100 100 39 5 5 5 5 2 3 0 0 0 0 0
100 99 92 100 100 95 96 82 81 100 100 100 99 24 35 81 41 10 10 100 100 50 51 35 100 100 100 17 5 11 87 100 100 100 20 5 5 5 5 5 5 4 1 5 4
100 100 100 100 100 100 100 100 92 100 100 100 48 86 78 100 50 60 14 94 9 5 13 46 97 99 16 29 12 76 37 100 100 100 53 7 5 5 1 5 5 5 24 5 5
100 100 100 100 100 100 100 100 100 100 100 58 13 67 99 82 100 100 100 92 89 94 30 40 75 66 67 19 90 100 82 41 100 100 100 64 5 70 5 0 2 5 5 5 5
100 100 100 100 100 100 100 99 100 100 100 79 50 100 100 100 100 100 98 86 100 100 67 10 9 16 83 92 100 100 64 80 94 100 100 100 8 52 5 5 0 0 1 0 1
100 100 100 100 100 100 100 100 100 100 100 98 98 99 100 100 100 100 87 100 71 100 100 100 23 18 67 94 91 84 100 72 97 100 100 100 91 49 90 20 3 0 0 0 5
100 100 100 100 100 100 100 100 100 100 100 100 100 100 100 98 6 94 100 50 97 100 100 75 11 32 84 98 75 100 100 98 43 100 100 100 100 100 15 43 5 0 0 0 5
4 51 5 87 100 100 100 100 100 100 100 100 100 100 100 100 100 100 12 97 100 100 100 36 24 100 70 100 98 100 100 79 100 100 100 100 100 99 72 16 5 5 5 5 17
0 5 5 22 100 100 100 100 100 100 100 94 100 100 100 86 70 94 100 100 100 100 100 98 100 97 100 75 60 100 98 100 100 100 100 100 100 52 30 5 5 5 5 6 49
63 42 98 98 73 100 98 100 100 100 100 45 100 100 100 87 100 100 100 100 100 93 98 100 100 100 20 5 12 74 25 69 97 100 100 100 100 98 79 36 15 5 5 94 100
100 99 68 100 100 99 100 100 100 100 100 100 100 100 77 100 100 33 54 27 100 100 100 76 5 5 8 100 34 5 9 92 100 100 100 100 100 100 100 99 5 5 96 100 100
76 100 98 98 97 94 100 100 100 82 100 100 99 65 82 100 100 46 46 100 100 100 50 5 8 84 100 90 5 5 9 27 100 100 90 100 100 100 100 100 8 6 23 100 98
93 40 94 78 91 100 100 88 100 100 59 92 99 100 100 100 95 10 100 100 100 100 18 28 100 100 93 18 5 5 65 11 91 99 98 100 100 100 100 100 100 100 99 27 5
5 98 5 5 100 100 100 100 100 100 100 100 100 100 87 47 91 100 100 75 9 5 48 49 9 5 6 9 5 5 5 5 36 14 55 76 100 100 100 100 100 78 5 40 94
83 94 59 98 100 100 100 100 100 100 100 100 100 76 67 96 49 32 62 98 81 8 9 44 33 15 5 7 5 11 6 5 5 30 93 86 39 100 100 100 100 3 5 40 100
100 100 84 82 71 100 100 100 100 100 100 100 99 100 100 100 100 100 100 99 97 48 46 28 30 98 100 100 97 100 70 5 5 5 11 98 5 59 99 91 94 77 9 80 42
100 48 84 83 100 100 100 100 100 100 100 100 100 100 91 93 100 100 47 5 5 8 5 4 5 26 69 17 4 5 5 5 0 0 0 7 25 2 2 0 1 5 5 4 2
95 100 100 100 100 100 100 96 100 100 100 100 100 98 98 100 77 5 5 11 88 4 1 5 5 1 0 4 5 5 3 0 0 0 0 2 64 2 0 0 0 2 0 0 0
100 100 100 100 100 100 100 100 100 100 100 100 100 89 85 12 33 85 14 5 1 4 0 0 0 0 5 16 5 5 1 0 0 0 0 4 2 0 0 0 4 2 0 4 3
98 100 100 100 100 100 100 100 100 100 100 100 94 20 74 95 10 5 5 4 0 0 0 0 0 1 2 0 5 0 0 0 0 4 0 69 1 2 4 5 25 28 49 99 96
100 100 100 100 100 100 99 100 100 100 100 36 34 6 5 29 5 4 1 4 2 0 0 0 0 0 1 1 5 5 0 0 0 0 0 2 0 0 0 0 0 0 0 0 0
100 100 100 100 100 100 100 100 100 100 100 100 91 36 23 12 5 5 5 5 5 0 0 0 0 4 4 3 5 5 0 0 0 0 0 0 0 0 0 0 0 0 0 0 0
100 100 100 100 100 100 100 100 87 51 99 100 49 5 5 5 44 34 5 5 5 0 0 2 4 5 3 0 4 0 0 0 0 0 0 0 0 0 0 0 0 0 0 1 1